Time,TemperatureF,DewpointF,PressureIn,WindDirection,WindDirectionDegrees,WindSpeedMPH,WindSpeedGustMPH,Humidity,HourlyPrecipIn,Conditions,Clouds,dailyrainin,SoftwareType,DateUTC
2013-07-07 00:01:00,71.4,63.4,30.18,SSW,202,0.0,0.0,76,0.00,,,0.00,WUHU21623XXSP,2013-07-07 04:01:00,
2013-07-07 00:06:00,71.4,63.0,30.18,South,180,0.0,0.0,75,0.00,,,0.00,WUHU21623XXSP,2013-07-07 04:06:00,
2013-07-07 00:11:00,71.6,63.2,30.18,South,180,0.0,0.0,75,0.00,,,0.00,WUHU21623XXSP,2013-07-07 04:11:00,
2013-07-07 00:16:00,71.2,62.9,30.18,South,180,0.0,0.0,75,0.00,,,0.00,WUHU21623XXSP,2013-07-07 04:16:00,
2013-07-07 00:21:00,71.2,62.9,30.17,SSE,157,2.0,2.0,75,0.00,,,0.00,WUHU21623XXSP,2013-07-07 04:21:00,
2013-07-07 00:26:00,71.8,63.0,30.17,SSE,157,0.0,2.0,74,0.00,,,0.00,WUHU21623XXSP,2013-07-07 04:26:00,
2013-07-07 00:31:00,71.4,63.0,30.17,SSE,157,0.0,2.0,75,0.00,,,0.00,WUHU21623XXSP,2013-07-07 04:31:00,
2013-07-07 00:36:00,71.8,63.0,30.17,SSE,157,0.0,0.0,74,0.00,,,0.00,WUHU21623XXSP,2013-07-07 04:36:00,
2013-07-07 00:41:00,71.8,62.7,30.18,SSE,157,0.0,0.0,73,0.00,,,0.00,WUHU21623XXSP,2013-07-07 04:41:00,
2013-07-07 00:46:00,71.6,62.9,30.17,SSE,157,0.0,0.0,74,0.00,,,0.00,WUHU21623XXSP,2013-07-07 04:46:00,
2013-07-07 00:51:00,71.4,62.7,30.17,SSE,157,0.0,0.0,74,0.00,,,0.00,WUHU21623XXSP,2013-07-07 04:51:00,
2013-07-07 00:56:00,71.2,62.5,30.17,SSE,157,0.0,0.0,74,0.00,,,0.00,WUHU21623XXSP,2013-07-07 04:56:00,
2013-07-07 01:01:00,71.1,62.7,30.17,SSE,157,0.0,0.0,75,0.00,,,0.00,WUHU21623XXSP,2013-07-07 05:01:00,
2013-07-07 01:06:00,70.9,62.5,30.18,SSE,157,0.0,0.0,75,0.00,,,0.00,WUHU21623XXSP,2013-07-07 05:06:00,
2013-07-07 01:11:00,70.9,62.5,30.17,SSE,157,0.0,0.0,75,0.00,,,0.00,WUHU21623XXSP,2013-07-07 05:11:00,
2013-07-07 01:16:00,71.2,62.5,30.17,SSE,157,0.0,0.0,74,0.00,,,0.00,WUHU21623XXSP,2013-07-07 05:16:00,
2013-07-07 01:21:00,71.2,62.5,30.17,SSE,157,0.0,0.0,74,0.00,,,0.00,WUHU21623XXSP,2013-07-07 05:21:00,
2013-07-07 01:26:00,71.1,62.7,30.17,SSE,157,0.0,0.0,75,0.00,,,0.00,WUHU21623XXSP,2013-07-07 05:26:00,
2013-07-07 01:31:00,70.9,62.1,30.17,SSE,157,0.0,0.0,74,0.00,,,0.00,WUHU21623XXSP,2013-07-07 05:31:00,
2013-07-07 01:36:00,71.1,62.3,30.17,SSE,157,0.0,0.0,74,0.00,,,0.00,WUHU21623XXSP,2013-07-07 05:36:00,
2013-07-07 01:41:00,70.9,62.1,30.17,SSE,157,0.0,0.0,74,0.00,,,0.00,WUHU21623XXSP,2013-07-07 05:41:00,
2013-07-07 01:46:00,70.9,62.1,30.17,SSE,157,0.0,0.0,74,0.00,,,0.00,WUHU21623XXSP,2013-07-07 05:46:00,
2013-07-07 01:51:00,70.9,62.1,30.16,SSE,157,0.0,0.0,74,0.00,,,0.00,WUHU21623XXSP,2013-07-07 05:51:00,
2013-07-07 01:56:00,70.7,62.0,30.17,SSE,157,0.0,0.0,74,0.00,,,0.00,WUHU21623XXSP,2013-07-07 05:56:00,
2013-07-07 02:01:00,70.5,62.2,30.16,SSE,157,0.0,0.0,75,0.00,,,0.00,WUHU21623XXSP,2013-07-07 06:01:00,
2013-07-07 02:06:00,70.2,61.8,30.16,SSE,157,0.0,0.0,75,0.00,,,0.00,WUHU21623XXSP,2013-07-07 06:06:00,
2013-07-07 02:11:00,70.0,62.0,30.16,SSE,157,0.0,0.0,76,0.00,,,0.00,WUHU21623XXSP,2013-07-07 06:11:00,
2013-07-07 02:16:00,69.6,62.0,30.16,SSE,157,0.0,0.0,77,0.00,,,0.00,WUHU21623XXSP,2013-07-07 06:16:00,
2013-07-07 02:21:00,69.6,62.0,30.16,SSE,157,0.0,0.0,77,0.00,,,0.00,WUHU21623XXSP,2013-07-07 06:21:00,
2013-07-07 02:26:00,69.6,62.0,30.16,SSE,157,0.0,0.0,77,0.00,,,0.00,WUHU21623XXSP,2013-07-07 06:26:00,
2013-07-07 02:31:00,69.6,62.0,30.16,SSE,157,0.0,0.0,77,0.00,,,0.00,WUHU21623XXSP,2013-07-07 06:31:00,
2013-07-07 02:37:00,69.4,61.9,30.16,SSE,157,0.0,0.0,77,0.00,,,0.00,WUHU21623XXSP,2013-07-07 06:37:00,
2013-07-07 02:42:00,69.4,61.9,30.15,SSE,157,0.0,0.0,77,0.00,,,0.00,WUHU21623XXSP,2013-07-07 06:42:00,
2013-07-07 02:47:00,69.6,62.0,30.15,SSE,157,0.0,0.0,77,0.00,,,0.00,WUHU21623XXSP,2013-07-07 06:47:00,
2013-07-07 02:52:00,69.6,61.6,30.16,SSE,157,0.0,0.0,76,0.00,,,0.00,WUHU21623XXSP,2013-07-07 06:52:00,
2013-07-07 02:57:00,69.6,62.0,30.16,SSE,157,0.0,0.0,77,0.00,,,0.00,WUHU21623XXSP,2013-07-07 06:57:00,
2013-07-07 03:02:00,69.4,61.9,30.16,SSE,157,0.0,0.0,77,0.00,,,0.00,WUHU21623XXSP,2013-07-07 07:02:00,
2013-07-07 03:07:00,69.4,61.9,30.16,SSE,157,0.0,0.0,77,0.00,,,0.00,WUHU21623XXSP,2013-07-07 07:07:00,
2013-07-07 03:12:00,69.4,61.9,30.15,SSE,157,0.0,1.3,77,0.00,,,0.00,WUHU21623XXSP,2013-07-07 07:12:00,
2013-07-07 03:17:00,69.6,61.6,30.15,SSE,157,0.0,1.3,76,0.00,,,0.00,WUHU21623XXSP,2013-07-07 07:17:00,
2013-07-07 03:22:00,69.6,61.6,30.16,SSE,157,0.0,0.0,76,0.00,,,0.00,WUHU21623XXSP,2013-07-07 07:22:00,
2013-07-07 03:27:00,69.6,61.6,30.16,SSE,157,0.0,0.0,76,0.00,,,0.00,WUHU21623XXSP,2013-07-07 07:27:00,
2013-07-07 03:32:00,70.2,61.8,30.16,SSE,157,0.0,0.0,75,0.00,,,0.00,WUHU21623XXSP,2013-07-07 07:32:00,
2013-07-07 03:37:00,70.0,61.6,30.16,SSE,157,0.0,1.3,75,0.00,,,0.00,WUHU21623XXSP,2013-07-07 07:37:00,
2013-07-07 03:42:00,69.8,61.8,30.16,SSW,202,0.0,2.0,76,0.00,,,0.00,WUHU21623XXSP,2013-07-07 07:42:00,
2013-07-07 03:47:00,70.3,62.0,30.16,WNW,292,0.0,2.7,75,0.00,,,0.00,WUHU21623XXSP,2013-07-07 07:47:00,
2013-07-07 03:52:00,70.9,62.1,30.16,WNW,292,0.0,2.7,74,0.00,,,0.00,WUHU21623XXSP,2013-07-07 07:52:00,
2013-07-07 03:57:00,70.9,62.1,30.16,WSW,247,0.0,0.0,74,0.00,,,0.00,WUHU21623XXSP,2013-07-07 07:57:00,
2013-07-07 04:02:00,71.2,62.1,30.15,SE,135,0.0,6.3,73,0.00,,,0.00,WUHU21623XXSP,2013-07-07 08:02:00,
2013-07-07 04:07:00,71.2,61.7,30.15,SE,135,0.0,6.3,72,0.00,,,0.00,WUHU21623XXSP,2013-07-07 08:07:00,
2013-07-07 04:12:00,71.2,61.7,30.15,SSE,157,0.0,0.0,72,0.00,,,0.00,WUHU21623XXSP,2013-07-07 08:12:00,
2013-07-07 04:17:00,71.4,61.9,30.15,SSE,157,0.0,0.0,72,0.00,,,0.00,WUHU21623XXSP,2013-07-07 08:17:00,
2013-07-07 04:22:00,71.2,61.7,30.15,SSE,157,0.0,0.0,72,0.00,,,0.00,WUHU21623XXSP,2013-07-07 08:22:00,
2013-07-07 04:27:00,71.1,61.6,30.15,SSE,157,0.0,0.0,72,0.00,,,0.00,WUHU21623XXSP,2013-07-07 08:27:00,
2013-07-07 04:32:00,70.9,61.4,30.15,South,180,0.0,0.0,72,0.00,,,0.00,WUHU21623XXSP,2013-07-07 08:32:00,
2013-07-07 04:37:00,70.7,61.2,30.15,South,180,0.0,0.0,72,0.00,,,0.00,WUHU21623XXSP,2013-07-07 08:37:00,
2013-07-07 04:42:00,70.5,61.4,30.15,South,180,0.0,0.0,73,0.00,,,0.00,WUHU21623XXSP,2013-07-07 08:42:00,
2013-07-07 04:47:00,70.3,61.2,30.15,South,180,0.0,0.0,73,0.00,,,0.00,WUHU21623XXSP,2013-07-07 08:47:00,
2013-07-07 04:52:00,70.2,61.0,30.15,SSE,157,0.0,0.0,73,0.00,,,0.00,WUHU21623XXSP,2013-07-07 08:52:00,
2013-07-07 04:57:00,70.2,60.7,30.15,SE,135,0.0,0.0,72,0.00,,,0.00,WUHU21623XXSP,2013-07-07 08:57:00,
2013-07-07 05:02:00,70.3,60.8,30.15,SSE,157,0.0,0.0,72,0.00,,,0.00,WUHU21623XXSP,2013-07-07 09:02:00,
2013-07-07 05:07:00,70.2,60.7,30.15,SE,135,0.0,2.0,72,0.00,,,0.00,WUHU21623XXSP,2013-07-07 09:07:00,
2013-07-07 05:12:00,70.3,60.5,30.15,ESE,112,0.0,2.0,71,0.00,,,0.00,WUHU21623XXSP,2013-07-07 09:12:00,
2013-07-07 05:17:00,70.5,60.3,30.15,SE,135,0.0,0.0,71,0.00,,,0.00,WUHU21623XXSP,2013-07-07 09:17:00,
2013-07-07 05:22:00,70.3,60.1,30.15,SE,135,0.0,0.0,70,0.00,,,0.00,WUHU21623XXSP,2013-07-07 09:22:00,
2013-07-07 05:27:00,70.3,60.1,30.15,SE,135,0.0,0.0,70,0.00,,,0.00,WUHU21623XXSP,2013-07-07 09:27:00,
2013-07-07 05:32:00,70.3,59.6,30.15,South,180,0.0,0.0,69,0.00,,,0.00,WUHU21623XXSP,2013-07-07 09:32:00,
2013-07-07 05:37:00,70.5,59.4,30.15,ESE,112,0.0,0.0,68,0.00,,,0.00,WUHU21623XXSP,2013-07-07 09:37:00,
2013-07-07 05:42:00,70.5,59.8,30.16,ESE,112,0.0,0.0,69,0.00,,,0.00,WUHU21623XXSP,2013-07-07 09:42:00,
2013-07-07 05:47:00,70.3,59.6,30.16,SSW,202,0.0,0.0,69,0.00,,,0.00,WUHU21623XXSP,2013-07-07 09:47:00,
2013-07-07 05:52:00,70.3,60.1,30.16,West,270,0.0,0.0,70,0.00,,,0.00,WUHU21623XXSP,2013-07-07 09:52:00,
2013-07-07 05:57:00,70.3,60.5,30.16,SSE,157,0.0,0.0,71,0.00,,,0.00,WUHU21623XXSP,2013-07-07 09:57:00,
2013-07-07 06:02:00,70.2,59.9,30.16,SSE,157,0.0,0.0,71,0.00,,,0.00,WUHU21623XXSP,2013-07-07 10:02:00,
2013-07-07 06:07:00,70.2,59.9,30.16,SSE,157,0.0,0.0,70,0.00,,,0.00,WUHU21623XXSP,2013-07-07 10:07:00,
2013-07-07 06:12:00,70.3,59.6,30.15,South,180,0.0,0.0,69,0.00,,,0.00,WUHU21623XXSP,2013-07-07 10:12:00,
2013-07-07 06:17:00,70.5,59.4,30.16,WSW,247,0.0,0.0,68,0.00,,,0.00,WUHU21623XXSP,2013-07-07 10:17:00,
2013-07-07 06:22:00,71.2,59.7,30.16,WSW,247,0.0,0.0,67,0.00,,,0.00,WUHU21623XXSP,2013-07-07 10:22:00,
2013-07-07 06:27:00,70.9,59.3,30.16,WSW,247,0.0,0.0,67,0.00,,,0.00,WUHU21623XXSP,2013-07-07 10:27:00,
2013-07-07 06:32:00,70.9,59.3,30.15,WSW,247,0.0,0.0,67,0.00,,,0.00,WUHU21623XXSP,2013-07-07 10:32:00,
2013-07-07 06:37:00,70.9,60.2,30.15,WSW,247,0.0,0.0,69,0.00,,,0.00,WUHU21623XXSP,2013-07-07 10:37:00,
2013-07-07 06:42:00,70.9,60.2,30.16,WSW,247,0.0,0.0,69,0.00,,,0.00,WUHU21623XXSP,2013-07-07 10:42:00,
2013-07-07 06:47:00,70.2,60.7,30.16,WSW,247,0.0,0.0,72,0.00,,,0.00,WUHU21623XXSP,2013-07-07 10:47:00,
2013-07-07 06:52:00,69.6,60.5,30.16,WSW,247,0.0,0.0,73,0.00,,,0.00,WUHU21623XXSP,2013-07-07 10:52:00,
2013-07-07 06:57:00,69.6,61.3,30.16,WSW,247,0.0,0.0,75,0.00,,,0.00,WUHU21623XXSP,2013-07-07 10:57:00,
2013-07-07 07:02:00,69.4,61.5,30.16,WSW,247,0.0,0.0,76,0.00,,,0.00,WUHU21623XXSP,2013-07-07 11:02:00,
2013-07-07 07:07:00,69.1,61.2,30.16,WSW,247,0.0,0.0,76,0.00,,,0.00,WUHU21623XXSP,2013-07-07 11:07:00,
2013-07-07 07:12:00,69.1,61.5,30.16,WSW,247,0.0,0.0,77,0.00,,,0.00,WUHU21623XXSP,2013-07-07 11:12:00,
2013-07-07 07:17:00,68.9,61.0,30.16,SSW,202,0.0,0.0,76,0.00,,,0.00,WUHU21623XXSP,2013-07-07 11:17:00,
2013-07-07 07:22:00,69.3,61.7,30.17,SSW,202,0.0,0.0,77,0.00,,,0.00,WUHU21623XXSP,2013-07-07 11:22:00,
2013-07-07 07:27:00,69.1,61.5,30.17,SSW,202,0.0,0.0,77,0.00,,,0.00,WUHU21623XXSP,2013-07-07 11:27:00,
2013-07-07 07:32:00,69.6,61.3,30.17,SSW,202,0.0,0.0,75,0.00,,,0.00,WUHU21623XXSP,2013-07-07 11:32:00,
2013-07-07 07:37:00,69.6,61.3,30.16,SSW,202,0.0,0.0,75,0.00,,,0.00,WUHU21623XXSP,2013-07-07 11:37:00,
2013-07-07 07:42:00,69.8,61.8,30.17,SSW,202,0.0,0.0,76,0.00,,,0.00,WUHU21623XXSP,2013-07-07 11:42:00,
2013-07-07 07:47:00,70.3,62.3,30.17,SSW,202,0.0,0.0,76,0.00,,,0.00,WUHU21623XXSP,2013-07-07 11:47:00,
2013-07-07 07:52:00,70.5,62.2,30.17,SSW,202,0.0,0.0,75,0.00,,,0.00,WUHU21623XXSP,2013-07-07 11:52:00,
2013-07-07 07:57:00,70.9,62.5,30.17,SSW,202,0.0,0.0,75,0.00,,,0.00,WUHU21623XXSP,2013-07-07 11:57:00,
2013-07-07 08:02:00,71.4,62.7,30.16,SSW,202,0.0,0.0,74,0.00,,,0.00,WUHU21623XXSP,2013-07-07 12:02:00,
2013-07-07 08:07:00,71.4,63.4,30.16,SSW,202,0.0,0.0,76,0.00,,,0.00,WUHU21623XXSP,2013-07-07 12:07:00,
2013-07-07 08:12:00,71.8,63.0,30.16,SSW,202,0.0,0.0,74,0.00,,,0.00,WUHU21623XXSP,2013-07-07 12:12:00,
2013-07-07 08:17:00,72.0,62.8,30.16,SSW,202,0.0,0.0,73,0.00,,,0.00,WUHU21623XXSP,2013-07-07 12:17:00,
2013-07-07 08:22:00,72.1,63.4,30.16,SSE,157,0.0,0.0,74,0.00,,,0.00,WUHU21623XXSP,2013-07-07 12:22:00,
2013-07-07 08:27:00,72.1,63.4,30.16,SSE,157,0.0,0.0,74,0.00,,,0.00,WUHU21623XXSP,2013-07-07 12:27:00,
2013-07-07 08:32:00,72.1,63.8,30.17,SSE,157,0.0,1.8,75,0.00,,,0.00,WUHU21623XXSP,2013-07-07 12:32:00,
2013-07-07 08:37:00,72.3,63.6,30.17,SSE,157,0.0,1.8,74,0.00,,,0.00,WUHU21623XXSP,2013-07-07 12:37:00,
2013-07-07 08:42:00,73.0,64.7,30.17,SSE,157,0.0,1.8,75,0.00,,,0.00,WUHU21623XXSP,2013-07-07 12:42:00,
2013-07-07 08:47:00,73.0,64.7,30.17,SSE,157,0.0,1.8,75,0.00,,,0.00,WUHU21623XXSP,2013-07-07 12:47:00,
2013-07-07 08:52:00,73.0,65.8,30.17,SSE,157,0.0,0.0,78,0.00,,,0.00,WUHU21623XXSP,2013-07-07 12:52:00,
2013-07-07 08:57:00,72.7,65.1,30.17,SSE,157,0.0,0.0,77,0.00,,,0.00,WUHU21623XXSP,2013-07-07 12:57:00,
2013-07-07 09:02:00,73.2,64.8,30.17,SSE,157,0.0,2.0,75,0.00,,,0.00,WUHU21623XXSP,2013-07-07 13:02:00,
2013-07-07 09:07:00,73.6,65.2,30.17,South,180,0.0,3.6,75,0.00,,,0.00,WUHU21623XXSP,2013-07-07 13:07:00,
2013-07-07 09:12:00,73.6,65.4,30.16,SE,135,0.0,3.6,75,0.00,,,0.00,WUHU21623XXSP,2013-07-07 13:12:00,
2013-07-07 09:17:00,73.8,64.6,30.17,SSE,157,0.0,3.8,73,0.00,,,0.00,WUHU21623XXSP,2013-07-07 13:17:00,
2013-07-07 09:22:00,73.6,65.2,30.16,South,180,0.0,3.8,75,0.00,,,0.00,WUHU21623XXSP,2013-07-07 13:22:00,
2013-07-07 09:27:00,73.6,64.8,30.16,South,180,0.0,0.9,74,0.00,,,0.00,WUHU21623XXSP,2013-07-07 13:27:00,
2013-07-07 09:32:00,73.6,64.8,30.16,SE,135,0.0,1.6,74,0.00,,,0.00,WUHU21623XXSP,2013-07-07 13:32:00,
2013-07-07 09:37:00,73.4,64.7,30.16,SSE,157,0.0,1.6,74,0.00,,,0.00,WUHU21623XXSP,2013-07-07 13:37:00,
2013-07-07 09:42:00,73.2,64.8,30.15,SSE,157,0.0,0.0,75,0.00,,,0.00,WUHU21623XXSP,2013-07-07 13:42:00,
2013-07-07 09:47:00,73.2,64.5,30.15,SSE,157,0.0,0.0,74,0.00,,,0.00,WUHU21623XXSP,2013-07-07 13:47:00,
2013-07-07 09:52:00,73.9,63.6,30.15,SE,135,0.0,0.0,70,0.00,,,0.00,WUHU21623XXSP,2013-07-07 13:52:00,
2013-07-07 09:57:00,73.9,64.2,30.15,West,270,0.0,0.0,71,0.00,,,0.00,WUHU21623XXSP,2013-07-07 13:57:00,
2013-07-07 10:02:00,73.9,64.0,30.15,West,270,0.0,0.0,71,0.00,,,0.00,WUHU21623XXSP,2013-07-07 14:02:00,
2013-07-07 10:07:00,73.2,64.5,30.15,South,180,0.0,0.0,74,0.00,,,0.00,WUHU21623XXSP,2013-07-07 14:07:00,
2013-07-07 10:12:00,72.5,64.5,30.17,SSE,157,0.0,0.0,76,0.00,,,0.00,WUHU21623XXSP,2013-07-07 14:12:00,
2013-07-07 10:17:00,72.3,65.1,30.17,SW,225,0.0,0.0,78,0.00,,,0.00,WUHU21623XXSP,2013-07-07 14:17:00,
2013-07-07 10:22:00,72.3,65.1,30.17,SE,135,0.0,0.0,78,0.00,,,0.00,WUHU21623XXSP,2013-07-07 14:22:00,
2013-07-07 10:27:00,72.3,65.1,30.17,SSE,157,0.0,2.7,78,0.00,,,0.00,WUHU21623XXSP,2013-07-07 14:27:00,
2013-07-07 10:32:00,72.3,64.7,30.17,SSE,157,0.0,2.7,77,0.00,,,0.00,WUHU21623XXSP,2013-07-07 14:32:00,
2013-07-07 10:37:00,73.2,64.8,30.16,South,180,0.0,0.0,75,0.00,,,0.00,WUHU21623XXSP,2013-07-07 14:37:00,
2013-07-07 10:42:00,73.9,66.3,30.15,South,180,0.0,0.0,77,0.00,,,0.00,WUHU21623XXSP,2013-07-07 14:42:00,
2013-07-07 10:47:00,74.1,66.5,30.15,South,180,0.0,0.0,77,0.00,,,0.00,WUHU21623XXSP,2013-07-07 14:47:00,
2013-07-07 10:52:00,73.8,66.5,30.16,SSE,157,0.0,0.0,78,0.00,,,0.00,WUHU21623XXSP,2013-07-07 14:52:00,
2013-07-07 10:57:00,73.8,67.3,30.15,SSE,157,0.0,0.0,80,0.00,,,0.00,WUHU21623XXSP,2013-07-07 14:57:00,
2013-07-07 11:02:00,74.3,67.0,30.15,SSE,157,0.0,0.0,78,0.00,,,0.00,WUHU21623XXSP,2013-07-07 15:02:00,
2013-07-07 11:07:00,74.5,66.8,30.15,South,180,0.0,0.0,77,0.00,,,0.00,WUHU21623XXSP,2013-07-07 15:07:00,
2013-07-07 11:12:00,74.8,67.2,30.15,South,180,0.0,0.0,77,0.00,,,0.00,WUHU21623XXSP,2013-07-07 15:12:00,
2013-07-07 11:17:00,76.6,67.3,30.15,SE,135,0.0,3.8,73,0.00,,,0.00,WUHU21623XXSP,2013-07-07 15:17:00,
2013-07-07 11:22:00,77.5,68.2,30.16,NE,45,0.0,5.6,73,0.00,,,0.00,WUHU21623XXSP,2013-07-07 15:22:00,
2013-07-07 11:27:00,77.9,65.6,30.15,SSE,157,2.2,5.6,66,0.00,,,0.00,WUHU21623XXSP,2013-07-07 15:27:00,
2013-07-07 11:32:00,78.6,66.7,30.15,SSE,157,0.0,3.6,67,0.00,,,0.00,WUHU21623XXSP,2013-07-07 15:32:00,
2013-07-07 11:37:00,79.2,65.5,30.15,SE,135,0.0,3.6,63,0.00,,,0.00,WUHU21623XXSP,2013-07-07 15:37:00,
2013-07-07 11:42:00,78.6,68.0,30.15,SSE,157,0.0,3.1,70,0.00,,,0.00,WUHU21623XXSP,2013-07-07 15:42:00,
2013-07-07 11:47:00,78.4,68.2,30.15,NW,315,0.0,2.5,71,0.00,,,0.00,WUHU21623XXSP,2013-07-07 15:47:00,
2013-07-07 11:52:00,78.6,66.3,30.15,NW,315,0.0,1.3,66,0.00,,,0.00,WUHU21623XXSP,2013-07-07 15:52:00,
2013-07-07 11:57:00,79.7,66.9,30.15,SSE,157,0.0,3.4,65,0.00,,,0.00,WUHU21623XXSP,2013-07-07 15:57:00,
2013-07-07 12:02:00,79.9,66.6,30.15,SSE,157,0.0,3.4,64,0.00,,,0.00,WUHU21623XXSP,2013-07-07 16:02:00,
2013-07-07 12:07:00,79.3,67.0,30.15,SSE,157,0.0,0.0,66,0.00,,,0.00,WUHU21623XXSP,2013-07-07 16:07:00,
2013-07-07 12:12:00,79.7,64.7,30.15,SSE,157,0.0,0.0,60,0.00,,,0.00,WUHU21623XXSP,2013-07-07 16:12:00,
2013-07-07 12:17:00,79.9,64.8,30.15,SSE,157,0.0,1.8,60,0.00,,,0.00,WUHU21623XXSP,2013-07-07 16:17:00,
2013-07-07 12:22:00,79.9,67.0,30.15,SSE,157,0.0,1.8,65,0.00,,,0.00,WUHU21623XXSP,2013-07-07 16:22:00,
2013-07-07 12:27:00,80.2,65.6,30.15,SSW,202,0.0,1.6,61,0.00,,,0.00,WUHU21623XXSP,2013-07-07 16:27:00,
2013-07-07 12:32:00,81.5,65.8,30.15,South,180,0.0,1.6,59,0.00,,,0.00,WUHU21623XXSP,2013-07-07 16:32:00,
2013-07-07 12:37:00,81.9,67.5,30.15,SSE,157,0.0,0.0,62,0.00,,,0.00,WUHU21623XXSP,2013-07-07 16:37:00,
2013-07-07 12:42:00,81.7,66.9,30.15,SW,225,0.0,0.0,61,0.00,,,0.00,WUHU21623XXSP,2013-07-07 16:42:00,
2013-07-07 12:47:00,81.7,65.9,30.15,SW,225,0.0,0.0,59,0.00,,,0.00,WUHU21623XXSP,2013-07-07 16:47:00,
2013-07-07 12:52:00,81.1,66.4,30.14,WSW,247,0.0,0.0,61,0.00,,,0.00,WUHU21623XXSP,2013-07-07 16:52:00,
2013-07-07 12:57:00,80.8,65.6,30.14,NNW,337,0.0,0.7,60,0.00,,,0.00,WUHU21623XXSP,2013-07-07 16:57:00,
2013-07-07 13:02:00,80.2,66.0,30.14,NNW,337,0.0,2.2,62,0.00,,,0.00,WUHU21623XXSP,2013-07-07 17:02:00,
2013-07-07 13:07:00,79.9,67.0,30.14,South,180,0.0,2.2,65,0.00,,,0.00,WUHU21623XXSP,2013-07-07 17:07:00,
2013-07-07 13:12:00,79.3,66.5,30.14,South,180,0.0,0.0,65,0.00,,,0.00,WUHU21623XXSP,2013-07-07 17:12:00,
2013-07-07 13:17:00,80.1,68.1,30.14,WSW,247,0.0,0.0,67,0.00,,,0.00,WUHU21623XXSP,2013-07-07 17:17:00,
2013-07-07 13:22:00,81.1,67.3,30.13,South,180,0.0,0.0,63,0.00,,,0.00,WUHU21623XXSP,2013-07-07 17:22:00,
2013-07-07 13:27:00,81.7,67.4,30.13,SSE,157,0.0,0.0,62,0.00,,,0.00,WUHU21623XXSP,2013-07-07 17:27:00,
2013-07-07 13:32:00,82.0,68.1,30.13,WSW,247,0.0,0.0,63,0.00,,,0.00,WUHU21623XXSP,2013-07-07 17:32:00,
2013-07-07 13:37:00,82.0,68.1,30.13,WSW,247,0.0,0.0,63,0.00,,,0.00,WUHU21623XXSP,2013-07-07 17:37:00,
2013-07-07 13:42:00,82.2,69.2,30.13,WSW,247,0.0,0.0,65,0.00,,,0.00,WUHU21623XXSP,2013-07-07 17:42:00,
2013-07-07 13:47:00,82.6,67.7,30.13,WSW,247,0.0,1.6,61,0.00,,,0.00,WUHU21623XXSP,2013-07-07 17:47:00,
2013-07-07 13:52:00,83.8,70.3,30.13,WSW,247,0.0,1.6,64,0.00,,,0.00,WUHU21623XXSP,2013-07-07 17:52:00,
2013-07-07 13:57:00,83.1,68.7,30.12,WSW,247,0.0,0.0,62,0.00,,,0.00,WUHU21623XXSP,2013-07-07 17:57:00,
2013-07-07 14:02:00,82.9,67.6,30.12,WSW,247,0.0,0.0,60,0.00,,,0.00,WUHU21623XXSP,2013-07-07 18:02:00,
2013-07-07 14:07:00,83.5,70.0,30.12,WSW,247,0.0,1.8,64,0.00,,,0.00,WUHU21623XXSP,2013-07-07 18:07:00,
2013-07-07 14:12:00,83.1,70.5,30.12,SE,135,0.0,1.8,66,0.00,,,0.00,WUHU21623XXSP,2013-07-07 18:12:00,
2013-07-07 14:17:00,82.2,70.5,30.12,WSW,247,0.0,0.0,68,0.00,,,0.00,WUHU21623XXSP,2013-07-07 18:17:00,
2013-07-07 14:22:00,83.1,69.6,30.12,WSW,247,0.0,0.0,64,0.00,,,0.00,WUHU21623XXSP,2013-07-07 18:22:00,
2013-07-07 14:27:00,82.8,69.7,30.11,SE,135,0.0,0.0,65,0.00,,,0.00,WUHU21623XXSP,2013-07-07 18:27:00,
2013-07-07 14:32:00,82.2,69.6,30.11,SE,135,0.0,0.0,66,0.00,,,0.00,WUHU21623XXSP,2013-07-07 18:32:00,
2013-07-07 14:37:00,82.0,69.9,30.11,SE,135,0.0,0.0,67,0.00,,,0.00,WUHU21623XXSP,2013-07-07 18:37:00,
2013-07-07 14:42:00,82.9,71.2,30.10,WSW,247,0.0,0.0,68,0.00,,,0.00,WUHU21623XXSP,2013-07-07 18:42:00,
2013-07-07 14:47:00,82.9,71.2,30.10,WSW,247,0.0,0.0,68,0.00,,,0.00,WUHU21623XXSP,2013-07-07 18:47:00,
2013-07-07 14:52:00,83.7,70.6,30.09,WSW,247,0.0,0.0,65,0.00,,,0.00,WUHU21623XXSP,2013-07-07 18:52:00,
2013-07-07 14:57:00,83.8,69.4,30.10,WSW,247,0.0,0.0,62,0.00,,,0.00,WUHU21623XXSP,2013-07-07 18:57:00,
2013-07-07 15:02:00,85.1,69.2,30.10,WSW,247,0.0,2.7,59,0.00,,,0.00,WUHU21623XXSP,2013-07-07 19:02:00,
2013-07-07 15:07:00,85.3,70.8,30.10,WSW,247,0.0,2.7,62,0.00,,,0.00,WUHU21623XXSP,2013-07-07 19:07:00,
2013-07-07 15:12:00,85.6,70.6,30.10,WSW,247,0.0,2.2,61,0.00,,,0.00,WUHU21623XXSP,2013-07-07 19:12:00,
2013-07-07 15:17:00,84.0,71.0,30.09,NW,315,0.0,2.2,65,0.00,,,0.00,WUHU21623XXSP,2013-07-07 19:17:00,
2013-07-07 15:22:00,82.6,68.6,30.10,NNW,337,0.0,0.9,63,0.00,,,0.00,WUHU21623XXSP,2013-07-07 19:22:00,
2013-07-07 15:27:00,82.0,68.1,30.09,NNW,337,0.0,0.0,63,0.00,,,0.00,WUHU21623XXSP,2013-07-07 19:27:00,
2013-07-07 15:32:00,81.3,69.7,30.09,NNW,337,0.0,0.0,68,0.00,,,0.00,WUHU21623XXSP,2013-07-07 19:32:00,
2013-07-07 15:37:00,81.7,70.5,30.08,WSW,247,0.0,0.0,69,0.00,,,0.00,WUHU21623XXSP,2013-07-07 19:37:00,
2013-07-07 15:42:00,82.6,70.9,30.09,WSW,247,0.0,1.1,68,0.00,,,0.00,WUHU21623XXSP,2013-07-07 19:42:00,
2013-07-07 15:47:00,82.0,71.7,30.09,WSW,247,0.0,1.1,71,0.00,,,0.00,WUHU21623XXSP,2013-07-07 19:47:00,
2013-07-07 15:52:00,82.6,71.3,30.09,WSW,247,0.0,1.1,69,0.00,,,0.00,WUHU21623XXSP,2013-07-07 19:52:00,
2013-07-07 15:57:00,82.9,69.0,30.09,North,0,0.0,1.1,63,0.00,,,0.00,WUHU21623XXSP,2013-07-07 19:57:00,
2013-07-07 16:02:00,82.8,70.2,30.09,WSW,247,0.0,0.4,66,0.00,,,0.00,WUHU21623XXSP,2013-07-07 20:02:00,
2013-07-07 16:07:00,83.3,70.7,30.09,WSW,247,0.0,0.0,66,0.00,,,0.00,WUHU21623XXSP,2013-07-07 20:07:00,
2013-07-07 16:12:00,84.4,70.0,30.08,WSW,247,0.0,6.0,62,0.00,,,0.00,WUHU21623XXSP,2013-07-07 20:12:00,
2013-07-07 16:17:00,85.5,71.0,30.08,WSW,247,0.0,6.0,62,0.00,,,0.00,WUHU21623XXSP,2013-07-07 20:17:00,
2013-07-07 16:22:00,85.3,69.3,30.08,SW,225,0.0,3.8,59,0.00,,,0.00,WUHU21623XXSP,2013-07-07 20:22:00,
2013-07-07 16:27:00,84.7,72.1,30.07,WSW,247,0.0,0.9,66,0.00,,,0.00,WUHU21623XXSP,2013-07-07 20:27:00,
2013-07-07 16:32:00,85.8,70.4,30.07,WSW,247,0.0,0.9,60,0.00,,,0.00,WUHU21623XXSP,2013-07-07 20:32:00,
2013-07-07 16:37:00,84.6,71.9,30.07,South,180,0.0,0.0,66,0.00,,,0.00,WUHU21623XXSP,2013-07-07 20:37:00,
2013-07-07 16:42:00,83.8,70.8,30.08,SSE,157,0.0,1.6,65,0.00,,,0.00,WUHU21623XXSP,2013-07-07 20:42:00,
2013-07-07 16:47:00,83.1,71.4,30.07,WSW,247,0.0,1.6,68,0.00,,,0.00,WUHU21623XXSP,2013-07-07 20:47:00,
2013-07-07 16:52:00,82.8,72.0,30.08,South,180,0.0,0.0,70,0.00,,,0.00,WUHU21623XXSP,2013-07-07 20:52:00,
2013-07-07 16:57:00,82.9,71.7,30.07,WSW,247,0.0,4.7,69,0.00,,,0.00,WUHU21623XXSP,2013-07-07 20:57:00,
2013-07-07 17:02:00,83.1,71.9,30.07,WSW,247,0.0,4.7,69,0.00,,,0.00,WUHU21623XXSP,2013-07-07 21:02:00,
2013-07-07 17:07:00,83.1,72.3,30.07,WSW,247,0.0,4.7,70,0.00,,,0.00,WUHU21623XXSP,2013-07-07 21:07:00,
2013-07-07 17:12:00,83.5,73.1,30.07,WSW,247,0.0,4.7,71,0.00,,,0.00,WUHU21623XXSP,2013-07-07 21:12:00,
2013-07-07 17:17:00,83.3,71.2,30.07,WSW,247,0.0,6.7,67,0.00,,,0.00,WUHU21623XXSP,2013-07-07 21:17:00,
2013-07-07 17:22:00,83.8,70.8,30.06,South,180,2.0,6.7,65,0.00,,,0.00,WUHU21623XXSP,2013-07-07 21:22:00,
2013-07-07 17:27:00,82.9,71.7,30.06,SSE,157,0.0,2.0,69,0.00,,,0.00,WUHU21623XXSP,2013-07-07 21:27:00,
2013-07-07 17:32:00,82.2,71.0,30.06,SSE,157,0.0,1.3,69,0.00,,,0.00,WUHU21623XXSP,2013-07-07 21:32:00,
2013-07-07 17:37:00,82.0,70.8,30.06,SE,135,0.0,0.0,69,0.00,,,0.00,WUHU21623XXSP,2013-07-07 21:37:00,
2013-07-07 17:42:00,81.1,71.7,30.06,SE,135,0.0,0.0,73,0.00,,,0.00,WUHU21623XXSP,2013-07-07 21:42:00,
2013-07-07 17:47:00,80.4,71.4,30.06,SSE,157,0.0,0.0,74,0.00,,,0.00,WUHU21623XXSP,2013-07-07 21:47:00,
2013-07-07 17:52:00,80.2,71.6,30.06,SSE,157,1.3,1.3,75,0.00,,,0.00,WUHU21623XXSP,2013-07-07 21:52:00,
2013-07-07 17:57:00,80.2,71.6,30.06,SSE,157,0.0,1.3,75,0.00,,,0.00,WUHU21623XXSP,2013-07-07 21:57:00,
2013-07-07 18:02:00,79.7,71.5,30.06,SSE,157,0.0,1.3,76,0.00,,,0.00,WUHU21623XXSP,2013-07-07 22:02:00,
2013-07-07 18:07:00,79.2,71.3,30.07,South,180,0.0,3.1,77,0.00,,,0.00,WUHU21623XXSP,2013-07-07 22:07:00,
2013-07-07 18:12:00,78.6,71.6,30.06,South,180,0.0,3.1,79,0.00,,,0.00,WUHU21623XXSP,2013-07-07 22:12:00,
2013-07-07 18:17:00,78.4,70.6,30.07,West,270,0.0,0.0,77,0.00,,,0.00,WUHU21623XXSP,2013-07-07 22:17:00,
2013-07-07 18:23:00,77.2,68.6,30.07,West,270,0.0,0.0,75,0.00,,,0.00,WUHU21623XXSP,2013-07-07 22:23:00,
2013-07-07 18:28:00,76.5,68.7,30.07,West,270,0.0,0.0,77,0.00,,,0.00,WUHU21623XXSP,2013-07-07 22:28:00,
2013-07-07 18:33:00,76.5,68.7,30.07,West,270,0.0,0.0,77,0.00,,,0.00,WUHU21623XXSP,2013-07-07 22:33:00,
2013-07-07 18:38:00,76.3,68.5,30.07,West,270,0.0,0.0,77,0.00,,,0.00,WUHU21623XXSP,2013-07-07 22:38:00,
2013-07-07 18:43:00,75.9,68.6,30.07,West,270,0.0,0.0,78,0.00,,,0.00,WUHU21623XXSP,2013-07-07 22:43:00,
2013-07-07 18:48:00,75.9,69.0,30.07,West,270,0.0,0.0,79,0.00,,,0.00,WUHU21623XXSP,2013-07-07 22:48:00,
2013-07-07 18:53:00,75.6,69.0,30.07,West,270,0.0,0.0,80,0.00,,,0.00,WUHU21623XXSP,2013-07-07 22:53:00,
2013-07-07 18:58:00,75.6,69.0,30.07,West,270,0.0,0.0,80,0.00,,,0.00,WUHU21623XXSP,2013-07-07 22:58:00,
2013-07-07 19:03:00,75.4,68.9,30.07,West,270,0.0,0.0,80,0.00,,,0.00,WUHU21623XXSP,2013-07-07 23:03:00,
2013-07-07 19:08:00,75.4,68.9,30.07,West,270,0.0,0.0,80,0.00,,,0.00,WUHU21623XXSP,2013-07-07 23:08:00,
2013-07-07 19:13:00,75.4,69.2,30.07,West,270,0.0,0.0,81,0.00,,,0.00,WUHU21623XXSP,2013-07-07 23:13:00,
2013-07-07 19:18:00,75.6,69.4,30.06,West,270,0.0,0.0,81,0.00,,,0.00,WUHU21623XXSP,2013-07-07 23:18:00,
2013-07-07 19:23:00,76.1,69.5,30.06,West,270,0.0,0.0,80,0.00,,,0.00,WUHU21623XXSP,2013-07-07 23:23:00,
2013-07-07 19:28:00,75.9,69.7,30.07,West,270,0.0,0.0,81,0.00,,,0.00,WUHU21623XXSP,2013-07-07 23:28:00,
2013-07-07 19:33:00,75.9,70.1,30.07,West,270,0.0,0.0,82,0.00,,,0.00,WUHU21623XXSP,2013-07-07 23:33:00,
2013-07-07 19:38:00,75.9,70.1,30.07,West,270,0.0,0.0,82,0.00,,,0.00,WUHU21623XXSP,2013-07-07 23:38:00,
2013-07-07 19:43:00,75.9,70.1,30.07,West,270,0.0,0.0,82,0.00,,,0.00,WUHU21623XXSP,2013-07-07 23:43:00,
2013-07-07 19:48:00,75.7,69.9,30.07,West,270,0.0,0.0,82,0.00,,,0.00,WUHU21623XXSP,2013-07-07 23:48:00,
2013-07-07 19:53:00,75.4,69.9,30.07,West,270,0.0,0.0,83,0.00,,,0.00,WUHU21623XXSP,2013-07-07 23:53:00,
2013-07-07 19:58:00,75.4,69.9,30.07,West,270,0.0,0.0,83,0.00,,,0.00,WUHU21623XXSP,2013-07-07 23:58:00,
2013-07-07 20:03:00,74.8,69.4,30.07,West,270,0.0,0.0,83,0.00,,,0.00,WUHU21623XXSP,2013-07-08 00:03:00,
2013-07-07 20:08:00,75.6,69.7,30.07,West,270,0.0,0.0,82,0.00,,,0.00,WUHU21623XXSP,2013-07-08 00:08:00,
2013-07-07 20:13:00,75.4,69.9,30.07,West,270,0.0,0.0,83,0.00,,,0.00,WUHU21623XXSP,2013-07-08 00:13:00,
2013-07-07 20:18:00,74.7,69.2,30.07,West,270,0.0,0.0,83,0.00,,,0.00,WUHU21623XXSP,2013-07-08 00:18:00,
2013-07-07 20:23:00,74.8,69.4,30.07,West,270,0.0,0.0,83,0.00,,,0.00,WUHU21623XXSP,2013-07-08 00:23:00,
2013-07-07 20:28:00,74.8,69.4,30.07,West,270,0.0,0.0,83,0.00,,,0.00,WUHU21623XXSP,2013-07-08 00:28:00,
2013-07-07 20:33:00,74.5,69.4,30.07,West,270,0.0,0.0,84,0.00,,,0.00,WUHU21623XXSP,2013-07-08 00:33:00,
2013-07-07 20:38:00,73.9,68.8,30.07,West,270,0.0,0.0,84,0.00,,,0.00,WUHU21623XXSP,2013-07-08 00:38:00,
2013-07-07 20:43:00,73.9,68.8,30.08,West,270,0.0,0.0,84,0.00,,,0.00,WUHU21623XXSP,2013-07-08 00:43:00,
2013-07-07 20:48:00,74.1,69.3,30.07,West,270,0.0,0.0,85,0.00,,,0.00,WUHU21623XXSP,2013-07-08 00:48:00,
2013-07-07 20:53:00,73.9,69.2,30.07,West,270,0.0,0.0,85,0.00,,,0.00,WUHU21623XXSP,2013-07-08 00:53:00,
2013-07-07 20:58:00,73.6,69.2,30.08,West,270,0.0,0.0,86,0.00,,,0.00,WUHU21623XXSP,2013-07-08 00:58:00,
2013-07-07 21:03:00,73.6,69.2,30.09,West,270,0.0,0.0,86,0.00,,,0.00,WUHU21623XXSP,2013-07-08 01:03:00,
2013-07-07 21:08:00,73.8,69.3,30.09,West,270,0.0,0.0,86,0.00,,,0.00,WUHU21623XXSP,2013-07-08 01:08:00,
2013-07-07 21:13:00,73.6,69.2,30.09,West,270,0.0,0.0,86,0.00,,,0.00,WUHU21623XXSP,2013-07-08 01:13:00,
2013-07-07 21:18:00,73.2,68.8,30.09,West,270,0.0,0.0,86,0.00,,,0.00,WUHU21623XXSP,2013-07-08 01:18:00,
2013-07-07 21:23:00,73.2,68.8,30.10,West,270,0.0,0.0,86,0.00,,,0.00,WUHU21623XXSP,2013-07-08 01:23:00,
2013-07-07 21:28:00,73.6,69.2,30.09,West,270,0.0,0.0,86,0.00,,,0.00,WUHU21623XXSP,2013-07-08 01:28:00,
2013-07-07 21:33:00,73.6,69.2,30.09,West,270,0.0,0.0,86,0.00,,,0.00,WUHU21623XXSP,2013-07-08 01:33:00,
2013-07-07 21:38:00,73.4,69.2,30.09,West,270,0.0,0.0,86,0.00,,,0.00,WUHU21623XXSP,2013-07-08 01:38:00,
2013-07-07 21:43:00,73.2,69.1,30.09,West,270,0.0,0.0,87,0.00,,,0.00,WUHU21623XXSP,2013-07-08 01:43:00,
2013-07-07 21:48:00,73.2,69.1,30.09,West,270,0.0,0.0,87,0.00,,,0.00,WUHU21623XXSP,2013-07-08 01:48:00,
2013-07-07 21:53:00,73.2,69.1,30.09,West,270,0.0,0.0,87,0.00,,,0.00,WUHU21623XXSP,2013-07-08 01:53:00,
2013-07-07 21:58:00,73.0,69.0,30.08,West,270,0.0,0.0,87,0.00,,,0.00,WUHU21623XXSP,2013-07-08 01:58:00,
2013-07-07 22:03:00,73.2,69.1,30.09,West,270,0.0,0.0,87,0.00,,,0.00,WUHU21623XXSP,2013-07-08 02:03:00,
2013-07-07 22:08:00,73.0,69.3,30.09,West,270,0.0,0.0,88,0.00,,,0.00,WUHU21623XXSP,2013-07-08 02:08:00,
2013-07-07 22:13:00,73.2,69.1,30.09,West,270,0.0,0.0,87,0.00,,,0.00,WUHU21623XXSP,2013-07-08 02:13:00,
2013-07-07 22:18:00,73.2,69.1,30.09,West,270,0.0,0.0,87,0.00,,,0.00,WUHU21623XXSP,2013-07-08 02:18:00,
2013-07-07 22:23:00,73.2,69.1,30.09,West,270,0.0,0.0,87,0.00,,,0.00,WUHU21623XXSP,2013-07-08 02:23:00,
2013-07-07 22:28:00,73.2,69.1,30.09,West,270,0.0,0.0,87,0.00,,,0.00,WUHU21623XXSP,2013-07-08 02:28:00,
2013-07-07 22:33:00,73.6,69.5,30.09,West,270,0.0,0.0,87,0.00,,,0.00,WUHU21623XXSP,2013-07-08 02:33:00,
2013-07-07 22:38:00,73.6,69.5,30.09,West,270,0.0,0.0,87,0.00,,,0.00,WUHU21623XXSP,2013-07-08 02:38:00,
2013-07-07 22:43:00,73.6,69.5,30.09,West,270,0.0,0.0,87,0.00,,,0.00,WUHU21623XXSP,2013-07-08 02:43:00,
2013-07-07 22:48:00,73.8,69.7,30.09,West,270,0.0,0.0,87,0.00,,,0.00,WUHU21623XXSP,2013-07-08 02:48:00,
2013-07-07 22:53:00,74.1,70.2,30.09,West,270,0.0,0.0,87,0.00,,,0.00,WUHU21623XXSP,2013-07-08 02:53:00,
2013-07-07 22:58:00,73.8,69.7,30.10,West,270,0.0,0.0,87,0.00,,,0.00,WUHU21623XXSP,2013-07-08 02:58:00,
2013-07-07 23:03:00,73.2,69.1,30.10,West,270,0.0,0.0,87,0.00,,,0.00,WUHU21623XXSP,2013-07-08 03:03:00,
2013-07-07 23:08:00,72.9,69.1,30.10,West,270,0.0,0.0,88,0.00,,,0.00,WUHU21623XXSP,2013-07-08 03:08:00,
2013-07-07 23:13:00,72.9,69.1,30.09,West,270,0.0,0.0,88,0.00,,,0.00,WUHU21623XXSP,2013-07-08 03:13:00,
2013-07-07 23:18:00,72.7,68.9,30.10,West,270,0.0,0.0,88,0.00,,,0.00,WUHU21623XXSP,2013-07-08 03:18:00,
2013-07-07 23:23:00,72.7,68.9,30.09,West,270,0.0,0.0,88,0.00,,,0.00,WUHU21623XXSP,2013-07-08 03:23:00,
2013-07-07 23:28:00,72.5,69.1,30.09,West,270,0.0,0.0,89,0.00,,,0.00,WUHU21623XXSP,2013-07-08 03:28:00,
2013-07-07 23:33:00,72.5,68.8,30.09,West,270,0.0,0.0,88,0.00,,,0.00,WUHU21623XXSP,2013-07-08 03:33:00,
2013-07-07 23:38:00,72.3,68.9,30.08,West,270,0.0,0.0,89,0.00,,,0.00,WUHU21623XXSP,2013-07-08 03:38:00,
2013-07-07 23:43:00,72.1,68.7,30.08,West,270,0.0,0.0,89,0.00,,,0.00,WUHU21623XXSP,2013-07-08 03:43:00,
2013-07-07 23:48:00,72.1,68.7,30.08,West,270,0.0,0.0,89,0.00,,,0.00,WUHU21623XXSP,2013-07-08 03:48:00,
2013-07-07 23:53:00,72.0,68.6,30.08,West,270,0.0,0.0,89,0.00,,,0.00,WUHU21623XXSP,2013-07-08 03:53:00,
2013-07-07 23:58:00,71.8,68.4,30.08,West,270,0.0,0.0,89,0.00,,,0.00,WUHU21623XXSP,2013-07-08 03:58:00,